Location: Houston
(29.7630°N, 95.3630°W)
Time: 01:37:48
(UTC-06:00)

Amateur Radio Satellites - All Passes

Search period start: 26 November 2014 01:07
Search period end: 27 November 2014 01:07
Location: Houston, 29.7630°N, 95.3630°W

Satellite Date Start Highest point End Downlink Frequencies (MHz)
Time Altitude Azimuth
SPROUT 26 Nov 01:08:33 01:10:28 13° 266° (W) 01:12:22 437.525
CUSAT 1 26 Nov 01:11:39 01:16:16 30° 265° (W) 01:22:03 437.405
KKS-1 26 Nov 01:14:59 01:17:38 16° 69° (ENE) 01:20:18 437.445
ITAMSAT 1 26 Nov 01:35:37 01:39:06 18° 95° (E) 01:42:34 435.822/435.867
MaSat-1 26 Nov 01:37:31 01:39:41 31° 251° (WSW) 01:41:58 437.345
DANDE 26 Nov 01:37:48 01:41:34 20° 265° (W) 01:46:05 436.750
ITUPSAT 1 26 Nov 01:40:14 01:44:47 44° 260° (W) 01:49:23 437.325
JUGNU 26 Nov 01:41:13 01:46:24 32° 181° (S) 01:51:37 437.505
SRMSAT 26 Nov 01:51:33 01:56:42 30° 174° (S) 02:01:51 437.500
SWISSCUBE 26 Nov 01:51:42 01:55:51 29° 262° (W) 02:00:02 437.505
YUBILEINY 26 Nov 01:57:27 02:05:25 40° 88° (E) 02:13:22 435.215
Gurwin Techsat 1B 26 Nov 02:06:52 02:10:54 22° 96° (E) 02:14:54 435.225
STARS 26 Nov 02:09:10 02:13:23 46° 74° (ENE) 02:17:35 437.465
Oscar 19 26 Nov 02:20:43 02:25:40 48° 286° (WNW) 02:30:36 437.125/150
BEESAT 26 Nov 02:24:39 02:27:08 14° 266° (W) 02:29:39 436.000
HORYU 2 26 Nov 02:29:34 02:31:30 13° 94° (E) 02:33:26 437.375
KKS-1 26 Nov 02:49:54 02:53:57 34° 261° (W) 02:58:01 437.445
RS-15 26 Nov 03:05:42 03:16:20 47° 251° (WSW) 03:27:27 29.354- 29.394
SO-50 26 Nov 03:13:05 03:17:26 57° 114° (ESE) 03:21:55 436.795
ITAMSAT 1 26 Nov 03:13:53 03:18:39 39° 288° (WNW) 03:23:23 435.822/435.867
AO-7 26 Nov 03:26:39 03:33:09 25° 97° (E) 03:39:36 29.400- 29.500
JUGNU 26 Nov 03:30:17 03:34:59 24° 191° (SSW) 03:39:42 437.505
SRMSAT 26 Nov 03:40:16 03:45:28 31° 184° (S) 03:50:39 437.500
Gurwin Techsat 1B 26 Nov 03:46:05 03:50:50 34° 288° (WNW) 03:55:33 435.225
STARS 26 Nov 03:48:49 03:50:00 11° 266° (W) 03:51:11 437.465
YUBILEINY 26 Nov 03:54:16 04:02:05 35° 283° (WNW) 04:09:56 435.215
MOZHAYETS 4 26 Nov 03:54:55 03:58:29 23° 71° (ENE) 04:02:04
HORYU 2 26 Nov 04:04:03 04:08:17 42° 286° (WNW) 04:12:32 437.375
PCSat 26 Nov 04:55:18 05:00:14 35° 60° (ENE) 05:05:08 145.827
SO-50 26 Nov 04:56:27 04:58:20 12° 310° (NW) 05:00:14 436.795
PRISM 26 Nov 05:05:58 05:09:19 24° 71° (ENE) 05:12:42 437.425
AO-7 26 Nov 05:18:01 05:26:08 58° 291° (WNW) 05:34:15 29.400- 29.500
JUGNU 26 Nov 05:21:11 05:23:28 12° 199° (SSW) 05:25:46 437.505
JAS-2 26 Nov 05:28:19 05:35:09 72° 101° (ESE) 05:41:07 435.910
BEESAT 3 26 Nov 05:29:21 05:33:24 49° 61° (ENE) 05:37:23 437.485
SRMSAT 26 Nov 05:29:48 05:34:10 21° 194° (SSW) 05:38:32 437.500
MOZHAYETS 4 26 Nov 05:31:47 05:35:32 25° 263° (W) 05:39:18
CUBESAT XI-V 26 Nov 05:36:43 05:40:06 20° 70° (ENE) 05:43:29 437.345
BEESAT 2 26 Nov 05:44:46 05:48:57 68° 62° (ENE) 05:53:04 435.950
Cubesat XI-IV 26 Nov 05:53:45 05:58:16 28° 97° (E) 06:02:44 437.490
O/OREOS (USA 219) 26 Nov 06:05:07 06:09:34 63° 289° (WNW) 06:14:01 437.305
STRAND 1 26 Nov 06:08:20 06:13:14 46° 73° (ENE) 06:18:08 437.568
AIST 2 26 Nov 06:19:42 06:23:59 80° 63° (ENE) 06:28:12 435.215
CUTE-I 26 Nov 06:34:27 06:39:46 75° 102° (ESE) 06:45:03 437.470
ISS 26 Nov 06:37:04 06:40:08 35° 42° (NE) 06:43:12 145.825
PCSat 26 Nov 06:39:11 06:43:23 23° 254° (WSW) 06:47:33 145.827
PRISM 26 Nov 06:41:41 06:44:45 20° 264° (W) 06:47:51 437.425
AIST 1 26 Nov 07:05:53 07:10:14 71° 84° (E) 07:14:32
CUBESAT XI-V 26 Nov 07:13:08 07:17:16 31° 263° (W) 07:21:27 437.345
JAS-2 26 Nov 07:15:39 07:19:11 15° 299° (WNW) 07:22:33 435.910
Cubesat XI-IV 26 Nov 07:33:47 07:38:11 27° 290° (WNW) 07:42:34 437.490
GONETS M04 26 Nov 07:47:21 07:55:31 45° 89° (E) 08:03:44
STRAND 1 26 Nov 07:49:40 07:52:33 15° 265° (W) 07:55:26 437.568
ISS 26 Nov 08:14:53 08:16:30 13° 235° (SW) 08:18:06 145.825
BRITE-PL 26 Nov 08:15:56 08:17:39 12° 95° (E) 08:19:23 437.365/2234.400
CUTE-I 26 Nov 08:18:33 08:19:07 10° 296° (WNW) 08:19:42 437.470
SEEDS 26 Nov 08:23:15 08:25:34 14° 95° (E) 08:27:52 437.485
AAUSAT CUBESAT 2 26 Nov 08:39:16 08:41:57 16° 95° (E) 08:44:38 437.432
DOVE 4 26 Nov 08:40:49 08:42:46 13° 95° (E) 08:44:43 437.250
CANX-2 26 Nov 08:50:05 08:54:10 41° 99° (E) 08:58:14 2200.000
COMPASS 1 26 Nov 08:53:50 08:57:33 29° 98° (E) 09:01:15 437.405
CINEMA 3 26 Nov 09:13:48 09:16:56 20° 97° (E) 09:20:09 145.822/145.860
HO-68 26 Nov 09:19:01 09:26:13 81° 105° (ESE) 09:33:22 435.675
UNISAT 6 26 Nov 09:19:41 09:21:39 13° 69° (ENE) 09:23:37 437.425
GOMX 1 26 Nov 09:22:01 09:26:10 63° 101° (E) 09:30:29 467.674
CUTE 1.7 & AOD 2 26 Nov 09:24:32 09:28:49 76° 283° (WNW) 09:33:07 437.475
POPSAT HIP 1 26 Nov 09:29:32 09:30:46 11° 68° (ENE) 09:32:00 437.405
GONETS M04 26 Nov 09:44:50 09:52:21 31° 284° (WNW) 09:59:57
ANTELSAT 26 Nov 09:46:36 09:50:16 28° 73° (ENE) 09:53:55 437.575/2403.000
AISAT 26 Nov 09:50:27 09:52:39 14° 95° (E) 09:54:51 437.250
UKube-1 26 Nov 09:51:27 09:55:40 52° 101° (E) 09:59:52 .
BRITE-PL 26 Nov 09:52:28 09:56:14 35° 286° (WNW) 10:00:07 437.365/2234.400
FUNcube-1 26 Nov 09:55:13 09:58:51 26° 98° (E) 10:02:31 145.935
SEEDS 26 Nov 09:57:34 10:01:25 33° 286° (WNW) 10:05:16 437.485
POLYITAN 1 26 Nov 10:00:37 10:04:17 28° 73° (ENE) 10:07:56 437.675
Oscar 11 26 Nov 10:02:24 10:06:46 89° 104° (ESE) 10:11:07 145.826/435.025
QB50P2 26 Nov 10:02:26 10:06:10 30° 73° (ENE) 10:09:53 145.880/145.840
DUCHIFAT 1 26 Nov 10:08:07 10:11:58 34° 74° (ENE) 10:15:50 145.980
AAUSAT CUBESAT 2 26 Nov 10:13:57 10:17:36 29° 287° (WNW) 10:21:15 437.432
DOVE 4 26 Nov 10:16:43 10:20:34 36° 285° (WNW) 10:24:34 437.250
DELFI C3 26 Nov 10:17:08 10:21:15 69° 283° (WNW) 10:25:21 145.870
UWE-3 26 Nov 10:21:34 10:25:50 72° 101° (ESE) 10:30:13 435.000/436.395/437.385
CUBEBUG 2 26 Nov 10:21:58 10:26:16 87° 103° (ESE) 10:30:41 437.445
50 SAT 26 Nov 10:23:54 10:27:23 27° 98° (E) 10:30:52 437.505
NANOSAT C BR1 26 Nov 10:27:11 10:31:24 62° 76° (ENE) 10:35:36 145.865
DX 1 26 Nov 10:27:21 10:31:34 51° 285° (WNW) 10:35:45 434.975-435.025
CANX-2 26 Nov 10:27:59 10:29:41 12° 291° (WNW) 10:31:23 2200.000
COMPASS 1 26 Nov 10:30:18 10:33:01 17° 290° (WNW) 10:35:43 437.405
HUMSAT D 26 Nov 10:36:47 10:40:52 51° 100° (E) 10:45:00 437.325/437.525
QB50P1 26 Nov 10:37:04 10:41:20 85° 77° (ENE) 10:45:36 145.935-145.965
TIGRISAT 26 Nov 10:39:59 10:44:11 58° 259° (W) 10:48:23 435.000
BUGSAT 1 26 Nov 10:45:51 10:50:07 89° 77° (ENE) 10:54:23 437.445
CINEMA 3 26 Nov 10:50:34 10:54:03 25° 287° (WNW) 10:57:38 145.822/145.860
UNISAT 6 26 Nov 10:54:07 10:58:05 37° 261° (W) 11:02:03 437.425
ZACube-1 26 Nov 10:56:04 11:00:10 48° 285° (WNW) 11:04:22 437.345
VELOX 1 26 Nov 10:58:30 11:02:55 83° 283° (WNW) 11:07:19 145.980
ESTCUBE 1 26 Nov 10:58:41 11:02:43 32° 98° (E) 11:06:44 437.505/2401.250
POPSAT HIP 1 26 Nov 11:02:09 11:06:14 45° 260° (W) 11:10:19 437.405
HO-68 26 Nov 11:09:20 11:13:01 15° 299° (WNW) 11:16:42 435.675
ANTELSAT 26 Nov 11:24:19 11:27:02 17° 264° (W) 11:29:46 437.575/2403.000
AISAT 26 Nov 11:25:18 11:29:22 37° 287° (WNW) 11:33:25 437.250
SPROUT 26 Nov 11:25:52 11:26:53 11° 94° (E) 11:27:54 437.525
FUNcube-1 26 Nov 11:32:01 11:34:59 19° 289° (WNW) 11:37:59 145.935
CUBEBUG 1 26 Nov 11:36:31 11:40:53 88° 282° (WNW) 11:45:12 437.445
POLYITAN 1 26 Nov 11:37:26 11:40:12 17° 264° (W) 11:42:58 437.675
QB50P2 26 Nov 11:39:26 11:42:04 16° 265° (W) 11:44:41 145.880/145.840
DUCHIFAT 1 26 Nov 11:45:43 11:47:53 14° 265° (W) 11:50:03 145.980
SO-50 26 Nov 11:52:09 11:54:21 13° 51° (NE) 11:56:33 436.795
Oscar 19 26 Nov 11:55:52 11:57:41 12° 66° (ENE) 11:59:29 437.125/150
50 SAT 26 Nov 11:59:52 12:02:26 16° 289° (WNW) 12:05:01 437.505
YUBILEINY 26 Nov 12:18:16 12:21:38 13° 68° (ENE) 12:24:59 435.215
ESTCUBE 1 26 Nov 12:36:19 12:39:18 18° 291° (WNW) 12:42:16 437.505/2401.250
CUSAT 1 26 Nov 12:37:36 12:40:13 29° 96° (E) 12:42:34 437.405
AUBIESAT-1 26 Nov 12:46:01 12:49:27 19° 99° (E) 12:52:46 437.475
TISAT 1 26 Nov 12:47:49 12:51:54 51° 285° (WNW) 12:55:57 437.305
ITAMSAT 1 26 Nov 12:48:29 12:51:34 16° 67° (ENE) 12:54:39 435.822/435.867
M-CUBED/EXP-1 PRIME 26 Nov 12:51:07 12:55:05 24° 100° (E) 12:58:54 437.505
BEESAT 26 Nov 12:52:11 12:55:29 18° 96° (E) 12:58:45 436.000
SPROUT 26 Nov 12:59:03 13:03:07 43° 285° (WNW) 13:07:09 437.525
PHONESAT 2.4 26 Nov 12:59:29 13:02:31 24° 142° (SE) 13:05:34 2401.200-2431.200
DANDE 26 Nov 13:05:02 13:08:08 79° 97° (E) 13:10:47 436.750
VERMONT LUNAR 26 Nov 13:08:19 13:11:45 45° 145° (SE) 13:15:13 437.305
Gurwin Techsat 1B 26 Nov 13:22:34 13:26:18 20° 68° (ENE) 13:30:03 435.225
SO-50 26 Nov 13:30:26 13:35:18 65° 245° (WSW) 13:40:08 436.795
Oscar 19 26 Nov 13:31:23 13:36:25 61° 259° (W) 13:41:29 437.125/150
ITUPSAT 1 26 Nov 13:46:52 13:51:41 80° 102° (ESE) 13:56:27 437.325
SWISSCUBE 26 Nov 13:57:40 14:02:26 69° 284° (WNW) 14:07:10 437.505
STARS 26 Nov 14:06:56 14:09:16 14° 95° (E) 14:11:35 437.465
YUBILEINY 26 Nov 14:10:45 14:19:29 87° 85° (E) 14:28:10 435.215
AUBIESAT-1 26 Nov 14:19:59 14:24:26 36° 292° (WNW) 14:28:43 437.475
AO-7 26 Nov 14:20:23 14:26:02 21° 60° (ENE) 14:31:41 29.400- 29.500
ITAMSAT 1 26 Nov 14:25:36 14:30:36 47° 260° (W) 14:35:38 435.822/435.867
M-CUBED/EXP-1 PRIME 26 Nov 14:25:47 14:29:59 29° 293° (WNW) 14:34:03 437.505
BEESAT 26 Nov 14:29:03 14:33:19 33° 288° (WNW) 14:37:34 436.000
PHONESAT 2.4 26 Nov 14:37:34 14:41:09 48° 334° (NNW) 14:44:46 2401.200-2431.200
KKS-1 26 Nov 14:46:49 14:51:15 73° 102° (ESE) 14:55:40 437.445
VERMONT LUNAR 26 Nov 14:47:04 14:50:18 30° 339° (NNW) 14:53:33 437.305
HORYU 2 26 Nov 14:56:23 15:00:48 83° 77° (ENE) 15:05:14 437.375
MaSat-1 26 Nov 14:59:44 15:02:50 52° 292° (WNW) 15:05:38 437.345
Gurwin Techsat 1B 26 Nov 15:01:01 15:05:56 39° 261° (W) 15:10:52 435.225
RS-15 26 Nov 15:09:23 15:19:46 49° 109° (ESE) 15:29:59 29.354- 29.394
JAS-2 26 Nov 15:33:44 15:38:54 20° 63° (ENE) 15:44:10 435.910
STARS 26 Nov 15:41:47 15:45:48 36° 287° (WNW) 15:49:48 437.465
AO-7 26 Nov 16:09:43 16:17:58 72° 255° (WSW) 16:26:16 29.400- 29.500
YUBILEINY 26 Nov 16:11:30 16:15:01 13° 280° (W) 16:18:33 435.215
PHONESAT 2.4 26 Nov 16:17:56 16:20:30 18° 350° (N) 16:23:06 2401.200-2431.200
O/OREOS (USA 219) 26 Nov 16:21:00 16:25:30 90° 73° (ENE) 16:29:59 437.305
VERMONT LUNAR 26 Nov 16:27:19 16:29:30 15° 356° (N) 16:31:42 437.305
Cubesat XI-IV 26 Nov 17:10:08 17:14:32 27° 70° (ENE) 17:18:56 437.490
JAS-2 26 Nov 17:15:36 17:23:01 72° 258° (WSW) 17:30:53 435.910
RS-15 26 Nov 17:22:04 17:32:05 40° 307° (NW) 17:42:08 29.354- 29.394
MOZHAYETS 4 26 Nov 17:32:13 17:36:50 65° 284° (WNW) 17:41:26
CUTE-I 26 Nov 17:50:16 17:55:35 68° 75° (ENE) 18:00:54 437.470
PHONESAT 2.4 26 Nov 17:57:44 18:00:13 17° 8° (N) 18:02:42 2401.200-2431.200
VERMONT LUNAR 26 Nov 18:06:11 18:08:53 19° 13° (NNE) 18:11:33 437.305
GONETS M04 26 Nov 18:07:31 18:12:11 15° 70° (ENE) 18:16:48
STRAND 1 26 Nov 18:25:34 18:29:47 26° 97° (E) 18:33:58 437.568
PRISM 26 Nov 18:29:44 18:33:59 86° 283° (WNW) 18:38:10 437.425
Cubesat XI-IV 26 Nov 18:49:50 18:54:26 29° 262° (W) 18:59:04 437.490
CUBESAT XI-V 26 Nov 19:15:35 19:20:14 75° 283° (WNW) 19:24:50 437.345
BEESAT 3 26 Nov 19:18:46 19:22:35 41° 113° (ESE) 19:26:28 437.485
AIST 1 26 Nov 19:29:04 19:33:21 56° 93° (E) 19:37:40
PCSat 26 Nov 19:30:24 19:35:47 75° 295° (WNW) 19:41:13 145.827
BEESAT 2 26 Nov 19:34:37 19:38:37 59° 114° (ESE) 19:42:42 435.950
CUTE-I 26 Nov 19:35:06 19:35:58 10° 267° (W) 19:36:50 437.470
PHONESAT 2.4 26 Nov 19:36:06 19:39:38 41° 24° (NNE) 19:43:09 2401.200-2431.200
CANX-2 26 Nov 19:39:10 19:41:29 15° 70° (ENE) 19:43:47 2200.000
HO-68 26 Nov 19:41:28 19:47:42 33° 67° (ENE) 19:53:56 435.675
VERMONT LUNAR 26 Nov 19:44:10 19:47:47 67° 29° (NNE) 19:51:22 437.305
GONETS M04 26 Nov 20:01:03 20:09:54 84° 266° (W) 20:18:38
STRAND 1 26 Nov 20:04:36 20:08:50 27° 290° (WNW) 20:13:03 437.568
CUTE 1.7 & AOD 2 26 Nov 20:12:03 20:15:50 34° 74° (ENE) 20:19:39 437.475
AIST 2 26 Nov 20:12:21 20:16:31 76° 115° (ESE) 20:20:46 435.215
GOMX 1 26 Nov 20:24:27 20:28:54 36° 75° (ENE) 20:33:05 467.674
UKube-1 26 Nov 20:41:38 20:44:55 21° 71° (ENE) 20:48:13 .
SEEDS 26 Nov 20:43:37 20:47:47 77° 77° (ENE) 20:51:59 437.485
FUNcube-1 26 Nov 20:49:12 20:49:27 10° 68° (ENE) 20:49:41 145.935
Oscar 11 26 Nov 20:51:44 20:55:31 31° 73° (ENE) 20:59:19 145.826/435.025
BRITE-PL 26 Nov 20:56:30 21:01:38 67° 259° (W) 21:06:24 437.365/2234.400
AAUSAT CUBESAT 2 26 Nov 20:58:48 21:02:56 86° 78° (ENE) 21:07:07 437.432
BEESAT 3 26 Nov 20:58:55 21:00:58 13° 307° (NW) 21:03:02 437.485
DELFI C3 26 Nov 21:00:24 21:04:01 32° 74° (ENE) 21:07:38 145.870
CANX-2 26 Nov 21:13:18 21:17:05 33° 262° (W) 21:20:54 2200.000
UWE-3 26 Nov 21:13:53 21:17:28 27° 73° (ENE) 21:21:00 435.000/436.395/437.385
COMPASS 1 26 Nov 21:14:51 21:18:52 49° 260° (W) 21:22:55 437.405
PHONESAT 2.4 26 Nov 21:15:04 21:18:21 30° 217° (SW) 21:21:37 2401.200-2431.200
CUBEBUG 2 26 Nov 21:15:08 21:19:00 33° 74° (ENE) 21:22:47 437.445
DOVE 4 26 Nov 21:16:07 21:20:51 75° 258° (WSW) 21:25:18 437.250
DX 1 26 Nov 21:16:52 21:21:11 61° 75° (ENE) 21:25:30 434.975-435.025
VERMONT LUNAR 26 Nov 21:23:39 21:25:58 16° 220° (SW) 21:28:16 437.305
HUMSAT D 26 Nov 21:24:45 21:27:27 17° 71° (ENE) 21:30:09 437.325/437.525
HO-68 26 Nov 21:28:39 21:35:10 37° 261° (W) 21:41:44 435.675
ISS 26 Nov 21:38:26 21:40:55 20° 127° (SE) 21:43:24 145.825
CINEMA 3 26 Nov 21:46:02 21:50:25 55° 259° (W) 21:54:38 145.822/145.860
ZACube-1 26 Nov 21:46:22 21:50:33 59° 76° (ENE) 21:54:39 437.345
ANTELSAT 26 Nov 21:47:29 21:48:01 10° 94° (E) 21:48:34 437.575/2403.000
CUTE 1.7 & AOD 2 26 Nov 21:49:44 21:51:49 13° 266° (W) 21:53:54 437.475
VELOX 1 26 Nov 21:50:37 21:54:49 41° 74° (ENE) 21:59:00 145.980
JUGNU 26 Nov 21:50:46 21:54:25 17° 164° (SSE) 21:58:04 437.505
ESTCUBE 1 26 Nov 21:54:04 21:56:42 15° 69° (ENE) 21:59:20 437.505/2401.250
GONETS M04 26 Nov 22:03:10 22:05:17 11° 281° (W) 22:07:23
GOMX 1 26 Nov 22:03:59 22:07:00 16° 264° (W) 22:09:54 467.674
AISAT 26 Nov 22:17:06 22:21:36 90° 257° (WSW) 22:26:05 437.250
UKube-1 26 Nov 22:17:23 22:20:54 24° 263° (W) 22:24:26 .
NANOSAT C BR1 26 Nov 22:20:00 22:22:41 16° 96° (E) 22:25:21 145.865
FUNcube-1 26 Nov 22:21:17 22:25:22 47° 260° (W) 22:29:24 145.935
CUBEBUG 1 26 Nov 22:27:07 22:31:10 35° 73° (ENE) 22:35:13 437.445
Oscar 11 26 Nov 22:29:07 22:31:41 16° 265° (W) 22:34:15 145.826/435.025
QB50P1 26 Nov 22:29:30 22:32:46 22° 97° (E) 22:36:02 145.935-145.965
BUGSAT 1 26 Nov 22:35:39 22:38:39 20° 96° (E) 22:41:37 437.445
DELFI C3 26 Nov 22:37:20 22:39:20 13° 266° (W) 22:41:21 145.870
TIGRISAT 26 Nov 22:37:37 22:41:54 44° 100° (E) 22:46:16 435.000
50 SAT 26 Nov 22:41:36 22:45:33 54° 260° (W) 22:49:30 437.505
UWE-3 26 Nov 22:51:09 22:53:58 17° 264° (W) 22:56:45 435.000/436.395/437.385
UNISAT 6 26 Nov 22:51:38 22:56:07 69° 101° (ESE) 23:00:41 437.425
CUBEBUG 2 26 Nov 22:53:28 22:55:43 14° 265° (W) 22:57:57 437.445
POPSAT HIP 1 26 Nov 22:53:45 22:57:48 45° 100° (E) 23:01:50 437.405
HUMSAT D 26 Nov 22:59:32 23:03:02 26° 263° (W) 23:06:31 437.325/437.525
ISS 26 Nov 23:14:42 23:17:26 24° 320° (NW) 23:20:10 145.825
CUSAT 1 26 Nov 23:19:37 23:24:12 28° 81° (E) 23:29:53 437.405
ANTELSAT 26 Nov 23:20:37 23:24:59 52° 285° (WNW) 23:29:26 437.575/2403.000
POLYITAN 1 26 Nov 23:27:48 23:31:58 62° 284° (WNW) 23:36:08 437.675
ESTCUBE 1 26 Nov 23:29:01 23:33:13 37° 261° (W) 23:37:26 437.505/2401.250
QB50P2 26 Nov 23:29:27 23:33:37 59° 284° (WNW) 23:37:46 145.880/145.840
VELOX 1 26 Nov 23:29:28 23:31:30 13° 266° (W) 23:33:31 145.980
TISAT 1 26 Nov 23:34:24 23:38:33 51° 75° (ENE) 23:42:41 437.305
DUCHIFAT 1 26 Nov 23:34:56 23:39:01 50° 285° (WNW) 23:43:05 145.980
M-CUBED/EXP-1 PRIME 26 Nov 23:37:40 23:38:56 11° 61° (ENE) 23:40:15 437.505
JUGNU 26 Nov 23:37:57 23:42:54 28° 172° (S) 23:47:54 437.505
SPROUT 26 Nov 23:47:04 23:51:21 64° 76° (ENE) 23:55:37 437.525
DANDE 26 Nov 23:49:07 23:54:01 44° 83° (E) 00:00:29 436.750
SRMSAT 26 Nov 23:50:51 23:55:13 21° 166° (SSE) 23:59:35 437.500
NANOSAT C BR1 26 Nov 23:54:55 23:58:32 28° 287° (WNW) 00:02:08 145.865
BEESAT 26 Nov 23:55:10 23:56:35 11° 66° (ENE) 23:58:00 436.000
CUBEBUG 1 27 Nov 00:05:05 00:07:35 15° 265° (W) 00:10:04 437.445
QB50P1 27 Nov 00:05:18 00:08:31 22° 289° (WNW) 00:11:44 145.935-145.965
BUGSAT 1 27 Nov 00:10:56 00:14:01 21° 289° (WNW) 00:17:05 437.445
TIGRISAT 27 Nov 00:16:18 00:18:15 13° 291° (WNW) 00:20:13 435.000
RS-15 27 Nov 00:17:46 00:27:36 33° 51° (NE) 00:37:43 29.354- 29.394
POPSAT HIP 1 27 Nov 00:32:14 00:33:15 11° 292° (WNW) 00:34:17 437.405
MaSat-1 27 Nov 00:43:40 00:45:49 31° 67° (ENE) 00:48:05 437.345
ITUPSAT 1 27 Nov 00:47:54 00:52:29 46° 74° (ENE) 00:57:04 437.325
SWISSCUBE 27 Nov 00:58:14 01:03:00 68° 76° (ENE) 01:07:47 437.505
